Regional Weather Roundup
Issued by NWS

Home | Current Version | Previous Version | Text Only | Print | Product List | Glossary Off
Versions: 1 2 3 4 5 6 7 8 9 10 11 12 13 14 15 16 17 18 19 20 21 22 23 24 25 26 27 28 29 30 31 32 33 34 35 36 37 38 39 40 41 42 43 44 45 46 47 48 49 50

000
ASUS43 KDMX 280901
RWRIA

WEATHER ROUNDUP FOR IOWA
NATIONAL WEATHER SERVICE DES MOINES IA
400 AM CDT WED JUN 28 2017

NOTE: "FAIR" INDICATES FEW OR NO CLOUDS BELOW 12,000 FEET WITH NO
SIGNIFICANT WEATHER AND/OR OBSTRUCTIONS TO VISIBILITY.

* - THESE STATIONS ARE NOT NWS STATIONS...THUS NOT UNDER NWS
QUALITY CONTROL.  THEY ALSO DO NOT REPORT WEATHER SUCH
AS PRECIPITATION OR FOG.

IAZ001>003-012>014-020>022-031>034-043>046-281000-
   NORTHWEST IOWA

CITY           SKY/WX    TMP DP  RH WIND       PRES   REMARKS
CARROLL *      CLOUDY    70  66  88 SW23G30   29.74R
CHEROKEE *     TSTM      69  67  91 S13       29.68R
DENISON *      LGT RAIN  66  64  94 SW18G30   29.78R
LE MARS *      CLOUDY    68  64  88 SE8G15    29.61F
ORANGE CITY *  LGT RAIN  64  63  94 S7        29.65R
SHELDON *      CLOUDY    64  61  88 S9G16     29.63R
SIOUX CITY     LGT RAIN  66  66 100 SE20G28   29.56F
SPENCER        CLOUDY    70  66  87 S17G24    29.62F
STORM LAKE *   CLOUDY    70  64  83 SW20G28   29.71R
$$

IAZ055>058-069>071-079>083-090>094-281000-
   SOUTHWEST IOWA

CITY           SKY/WX    TMP DP  RH WIND       PRES   REMARKS
ATLANTIC *     LGT RAIN  68  64  88 SW13G35   29.80R
AUDUBON *      RAIN      68  63  83 SW18G31   29.81R
CLARINDA *       N/A     68  66  94 SE5       29.84F
COUNCIL BLFS * RAIN      66  66 100 W18G30    29.86R
CRESTON *      CLOUDY    72  64  78 SW20G31   29.85R
HARLAN  *      RAIN      66  66 100 SW23G30   29.85R
LAMONI         CLOUDY    72  64  76 S15       29.83R
RED OAK *      LGT RAIN  68  63  83 W7G15     29.82R
SHENANDOAH *   DRIZZLE   66  64  94 SE7       29.80F
$$

IAZ047>049-059>061-072>074-084-281000-
   CENTRAL IOWA

CITY           SKY/WX    TMP DP  RH WIND       PRES   REMARKS
AMES           TSTM      70  65  84 SW9       29.78R
ANKENY *       CLOUDY    73  63  68 SW13G20   29.79R
BOONE *        LGT RAIN  68  66  94 S15G25    29.77R
CHARITON *     CLOUDY    72  63  73 S17G26    29.80S
DES MOINES     CLOUDY    75  63  66 S16G26    29.77R
GRINNELL*      CLOUDY    69  59  70 S15       29.81F
KNOXVILLE *    CLOUDY    72  63  73 S16G26    29.79R
MARSHALLTOWN   CLOUDY    69  58  67 S16       29.76F
NEWTON *       CLOUDY    68  61  77 S12G17    29.80R
PELLA *        CLOUDY    70  61  73 S13G18    29.81S
PERRY *        DRIZZLE   71  67  89 S17G25    29.75R
$$

IAZ004>006-015-016-023>025-035-036-281000-
   NORTH CENTRAL IOWA

CITY           SKY/WX    TMP DP  RH WIND       PRES   REMARKS
ALGONA *       LGT RAIN  68  68 100 S16       29.68F
CLARION *        N/A     68  61  77 S21G29    29.71F
ESTHERVILLE    LGT RAIN  69  67  93 S23G32    29.62F
FORT DODGE *   CLOUDY    72  63  73 S17G24    29.73F
MASON CITY     LGT RAIN  65  57  75 S17G25    29.71F
FOREST CITY *  LGT RAIN  68  55  64 S13G26    29.70F
WEBSTER CITY * CLOUDY    68  66  94 S20G31    29.72F
IOWA FALLS *   CLOUDY    70  60  70 S20G25    29.75F
$$

IAZ007>011-017>019-026>030-037>042-050>054-066-281000-
   NORTHEAST IOWA

CITY           SKY/WX    TMP DP  RH WIND       PRES   REMARKS
CEDAR RAPIDS   CLOUDY    67  55  65 S14G23    29.83F
CHARLES CITY * CLOUDY    64  57  77 SE15G22   29.75F
CLINTON *      CLOUDY    61  53  75 S9        29.92F
DECORAH *      CLOUDY    66  52  59 S12G20    29.79F
DUBUQUE        CLOUDY    63  51  65 S14       29.89F
MONTICELLO *   CLOUDY    63  52  67 SE9       29.85F
OELWEIN *      CLOUDY    66  52  59 SE15G22   29.81F
WATERLOO       CLOUDY    63  56  78 SE18G26   29.76F THUNDER
$$

IAZ064-065-067-068-078-281000-
   EAST CENTRAL IOWA

CITY           SKY/WX    TMP DP  RH WIND       PRES   REMARKS
IOWA CITY      CLOUDY    69  54  58 S13       29.87F
MT. PLEASANT * CLOUDY    67  55  66 S13       29.88F
MUSCATINE *    CLOUDY    66  54  63 SE8       29.89F
QUAD CITIES    MOCLDY    64  52  64 S10       29.91F
$$

IAZ062-063-075>077-085>089-095>099-281000-
   SOUTHEAST IOWA

CITY           SKY/WX    TMP DP  RH WIND       PRES   REMARKS
BURLINGTON     CLOUDY    66  56  70 S13       29.90F
FAIRFIELD *    CLOUDY    70  57  64 S16G23    29.85F
FORT MADISON * CLOUDY    66  57  72 S10       29.91F
KEOKUK *       CLOUDY    70  59  68 S9G17     29.90F
OSKALOOSA *      N/A     69  59  71 S15       29.82F
OTTUMWA        CLOUDY    70  60  70 S15G22    29.82F
WASHINGTON *   CLOUDY    68  57  68 S10G18    29.87F
$$

ABBREVIATIONS USED IN REMARKS
   TC - TEMPERATURES IN CELSIUS
  WCI - WIND CHILL INDEX
   HX - HEAT INDEX
  VSB - VISIBILITY
$$





USA.gov is the U.S. government's official web portal to all federal, state and local government web resources and services.